Other Public Products
Issued by NWS Charleston, SC

Current Version | Previous Version | Graphics & Text | Print | Product List | Glossary On
Versions: 1 2 3 4 5 6 7 8 9 10 11 12 13 14 15 16 17 18 19 20 21 22 23 24 25 26 27 28 29 30 31 32 33 34 35 36 37 38 39 40 41 42 43 44 45 46 47 48 49 50
000
FPUS82 KCHS 201027
OPUCHS

TEST...KCHS/KSAV Gateway Observations...TEST
National Weather Service Charleston SC
600 AM EDT THU JUL 20 2017

NOTE: "fair" indicates few or no clouds below 12,000 feet with no
significant weather and/or obstructions to visibility.

SCZ050-WAZ558-NCZ071-TXZ119-213-PAZ071-DCZ001-FLZ074-172-MI076-
NYZ176-178-MAZ016-IL014-TNZ027-NJZ106-GAZ044-MD014-201100-

...Gateway Observations for Charleston International...

CITY           SKY/WX    TMP DP  RH WIND       PRES   REMARKS
Chas Airport   PTCLDY    72  70  93 CALM      30.07S
Seattle        MOCLDY    61  53  75 SW10      30.06S
Charlotte      PTCLDY    72  68  87 CALM      30.08S
Dallas DFW     CLEAR     82  73  74 S7        30.07S
Dallas Love    PTCLDY    83  72  69 S7        30.08S
Philladelphia  MOCLDY    79  74  84 SW6       29.98S
Wash National  MOCLDY    79  74  84 SW5       30.01R
Baltimore      MOCLDY    73  73 100 CALM      29.99S
Miami          PTCLDY    81  76  84 CALM      30.05S
Detroit        CLOUDY    74  71  91 SE6       29.97F
Newark         PTCLDY    78  71  79 W3        29.96S
Laguardia      PTCLDY    78  74  87 NE3       29.95S
J F K          PTCLDY    77  76  96 SW6       29.96S
Boston Logan   PTCLDY    75  63  66 W6        29.93S
Ft. Lauderdale MOCLDY    82  77  84 VRB3      30.04S HX  90
Chicago O`Hare CLOUDY    71  68  90 CALM      30.01F THUNDER
Chicago Midway CLOUDY    72  68  87 CALM      30.02R THUNDER
Houston Bush   PTCLDY    78  75  90 CALM      30.09S
Houston Hobby  PTCLDY    80  75  84 CALM      30.09S
Nashville      PTCLDY    74  72  93 CALM      30.10S
Atlanta        CLEAR     75  70  84 W7        30.10S

$$

GAZ044-118-TXZ119-213-NCZ071-DCZ001-MDZ014-506-PAZ021-071-NJZ106-
NYZ176-178-MAZ106-OHZ011-021-055-MIZ076-KYZ091-ILZ014-INZ047-
MNZ060-ONZ431-201100-

...Gateway Observations for Savannah International...

CITY           SKY/WX    TMP DP  RH WIND       PRES   REMARKS
Savannah Arpt  PTCLDY    75  73  93 CALM      30.08R
Atlanta        CLEAR     75  70  84 W7        30.10S
Charlotte      PTCLDY    72  68  87 CALM      30.08S
Dallas DFW     CLEAR     82  73  74 S7        30.07S
Houston Bush   PTCLDY    78  75  90 CALM      30.09S
Wash National  MOCLDY    79  74  84 SW5       30.01R
Wash Dulles    MOCLDY    72  70  93 CALM      30.01S
Baltimore      MOCLDY    73  73 100 CALM      29.99S
Philadelphia   MOCLDY    79  74  84 SW6       29.98S
Newark         PTCLDY    78  71  79 W3        29.96S
Laguardia      PTCLDY    78  74  87 NE3       29.95S
J F K          PTCLDY    77  76  96 SW6       29.96S
Boston         PTCLDY    75  63  66 W6        29.93S
Pittsburg      CLOUDY    73  69  87 CALM      30.06R
Akron          PTCLDY    72  65  78 SW5       30.05S
Cleveland      MOCLDY    75  67  76 SW7       30.03S
Cincinnati     PTCLDY    67  67 100 S6        30.06F
Columbus       CLOUDY    68  68 100 S3        30.04S FOG
Detroit        CLOUDY    74  71  91 SE6       29.97F
Chicago O`Hare CLOUDY    71  68  90 CALM      30.01F THUNDER
Minneapolis    PTCLDY    69  67  93 N3        29.94S
Indianapolis   CLOUDY    74  72  93 SW6       30.03R
Toronto Canada MOCLDY    66  54  63 NW2       29.98F

$$




USA.gov is the U.S. government's official web portal to all federal, state and local government web resources and services.